地平线卫星 6星 (GORIZONT 6)

导读

GORIZONT 6于1982年10月20日由独立国家联合体(CIS)发射升空,属于GORIZONT系列通信卫星,该系列卫星是俄罗斯/苏联空间通信基础设施的重要组成部分。它主要承担通信服务任务,支持包括军事战术通信在内的多种通信需求,具备广泛的信号覆盖能力,是当时独联体航天通信体系建设中一颗具备实用价值的在轨卫星,推动了区域通信网络的空间布局。

基本信息
目录编号:
13624
目录名称:
GORIZONT 6
国际标识:
1982-103A
轨道中心:
EARTH
卫星名称:
地平线卫星 6星
卫星全名:
地平线卫星 6星 (GORIZONT 6)
卫星状态:
在轨 (已飞行15950 天)
发射日期:
1982-10-20 UTC
国别 :
俄罗斯(独联体) (CIS)
星等 :
--
轨道信息
数据来源 国际轨道数据 AOE轨道数据
星历时间 2026-06-20T09:45:52+0800
1天前
查看轨道信息
2026-06-20T23:00:00+0800
20小时前
查看轨道信息
半长轴 42157.021km 42156.993km
偏心率 0.0002544 0.0002376
轨道倾角 7.334° 7.332°
近地点辐角 354.241° 356.917°
升交点赤经 301.903° 301.900°
平近点角 190.375° 26.831°
近地点 35768.159km 35768.839km
远地点 35789.609km 35788.873km
周期 1435.703分钟 1435.702分钟
每日圈数 1.002993 1.002994
详细信息
平衡模式:
三轴稳定
覆盖范围:
全球
运营商:
俄罗斯国家航天集团
运营商所在国:
俄罗斯
制造商(研发单位):
普里克拉德诺伊·梅哈尼基设计局
制造商所在国:
俄罗斯联邦
使用方式:
暂无
卫星简介
地平线卫星(Gorizont)(俄语:Горизонт,Horizon),是1978年至2000年间发射的一系列(共35颗)俄罗斯(前苏联)地球同步通信卫星。该计划的启动是为了开发一个卫星系统来中继信号使全球覆盖1980年的莫斯科奥运会。 最初的四颗卫星是为了这个唯一目的而发射的。 此后,Gorizont系统被集成到YesSSS统一卫星通信系统中,用于中继民用和军用通信。 从1988年起,这些卫星还被用于支持Okean计划。该卫星已退役。
2D轨道图
3D轨道图
轨道高度分析图
轨道倾角分析图
轨道综合分析图
查看轨道综合分析图